GFSWCAN_con_lsi_000.txt.gz
Lid_Strength_Index
2 2 2 2 2 2 1 1 1 1 1 -0 -0 -0 -0 -0 0 1 4 3 6 9 9 9 9 11 11 14 18 17 16 17 16 19 23 17 20 16 18 16 18 18 19 21 19 23 20 12 13 18 15 12 13 13
2 2 1 1 1 1 1 1 0 0 0 -0 -0 -0 -0 -0 0 0 5 3 2 7 9 6 7 6 6 8 11 16 15 19 14 19 22 21 24 22 22 26 15 20 16 20 16 16 12 11 11 10 10 13 13 13
1 1 0 0 0 0 0 0 0 0 0 0 -0 -0 -0 0 0 1 5 5 4 6 7 9 9 6 5 5 5 11 14 9 10 10 16 15 20 17 25 23 19 15 13 16 17 13 12 11 10 9 10 11 12 12
0 0 0 0 0 1 1 0 1 1 1 1 1 0 0 0 0 0 5 3 4 6 11 12 8 8 6 5 6 6 7 8 8 9 11 14 19 13 18 15 16 14 13 15 14 12 10 10 10 10 10 10 11 12
0 0 0 0 0 0 1 1 1 1 1 1 1 1 1 0 0 1 3 4 3 6 11 14 13 8 7 7 7 6 7 8 8 10 11 14 15 14 15 12 15 11 12 13 15 10 9 10 9 9 10 12 12 13
0 0 0 0 0 1 1 1 1 1 1 1 1 1 1 1 1 4 7 4 3 3 8 17 10 13 8 7 7 8 8 8 8 9 9 10 9 10 13 18 12 9 8 8 9 7 8 8 8 8 11 12 13 14
1 1 1 1 1 1 1 1 1 1 1 1 1 1 1 1 3 6 7 7 2 3 8 12 15 13 9 10 12 9 8 7 7 7 9 9 9 8 10 13 10 8 7 7 9 11 11 9 11 11 12 12 13 15
1 1 1 1 1 1 1 1 1 1 1 1 1 1 1 1 1 4 3 2 2 5 7 12 14 14 11 15 14 8 8 7 7 8 10 9 8 8 12 9 8 7 7 10 11 12 12 13 13 13 14 14 17 17
1 1 2 1 1 2 2 1 1 1 1 1 1 1 3 4 6 7 1 -0 1 5 11 16 18 15 9 10 9 12 7 11 7 9 9 9 10 13 11 8 9 15 16 17 16 16 15 17 17 16 16 17 18 18
2 2 2 2 2 2 2 2 2 2 2 1 3 6 8 7 2 2 5 8 7 7 7 13 19 18 9 11 12 14 10 11 13 12 8 10 13 8 16 16 16 16 17 18 20 20 21 20 19 19 19 19 19 19
2 2 2 2 2 2 2 2 2 2 2 5 6 8 6 2 6 8 10 11 12 13 9 12 10 11 8 13 14 8 11 10 14 16 16 26 23 14 18 19 17 18 18 19 20 20 20 20 21 21 21 20 21 22
3 2 2 2 2 2 2 2 1 3 5 5 5 3 4 6 9 12 13 12 12 14 18 17 14 10 12 10 13 10 13 12 16 23 20 23 16 22 22 22 21 20 22 23 22 22 21 20 21 22 23 23 23 23
2 3 3 2 2 2 2 2 2 2 2 3 5 8 8 9 13 14 19 22 23 20 19 18 14 10 11 9 12 12 15 17 21 21 19 18 22 22 24 23 23 22 23 22 22 22 22 23 23 24 24 23 24 24
3 2 2 2 2 2 2 1 1 1 3 7 9 12 12 16 16 16 18 19 17 16 20 18 15 13 16 13 11 15 14 16 20 21 20 28 26 28 25 23 25 24 25 25 25 25 25 25 25 24 24 24 24 23
3 3 2 2 2 2 2 1 1 2 4 7 8 13 13 20 23 23 24 19 19 19 16 16 13 9 15 11 10 13 15 20 20 20 27 28 25 24 24 25 26 27 26 26 26 26 25 26 26 26 24 23 23 24
2 2 4 2 2 1 1 1 2 2 5 7 11 14 20 19 21 22 20 18 17 15 13 12 14 13 15 13 14 17 21 22 21 34 32 29 31 29 29 28 27 27 27 27 26 26 26 26 26 25 23 23 24 24
1 8 2 1 1 0 0 3 4 7 8 14 22 26 25 22 22 25 23 21 17 19 17 15 16 17 14 15 18 22 22 30 34 35 32 31 31 29 29 29 28 28 28 27 26 26 27 26 25 24 25 25 25 24
9 5 1 0 1 1 4 6 7 12 19 20 24 28 25 26 26 25 24 20 19 19 23 20 18 22 23 23 23 31 34 36 35 33 29 28 31 31 30 30 28 28 27 27 29 27 26 24 25 25 25 25 25 25
5 1 0 -0 2 5 8 10 12 20 23 24 23 23 25 25 22 22 24 20 19 21 21 23 25 26 26 32 35 38 39 38 35 29 28 29 28 30 30 29 28 31 30 28 27 25 24 24 24 24 25 24 26 25
2 1 1 2 3 8 12 14 15 21 26 22 24 27 26 25 27 32 32 23 20 26 25 25 30 35 32 31 30 30 28 28 33 36 32 29 28 32 29 27 27 27 27 26 25 24 25 25 24 24 24 24 25 26
5 5 4 8 12 14 16 17 20 20 21 24 26 25 25 28 34 34 33 24 27 24 29 36 37 34 33 34 33 35 30 30 32 32 33 33 26 25 25 26 26 27 28 27 27 26 26 26 25 24 24 24 24 24
8 6 11 10 14 17 18 18 20 21 24 27 26 30 35 34 35 35 28 31 30 33 34 34 35 36 37 36 35 36 34 37 36 31 27 26 27 27 26 27 28 29 28 28 28 27 27 26 25 25 25 24 24 24
10 11 15 16 19 22 23 22 25 24 27 28 32 31 32 35 33 25 29 36 36 33 38 38 38 40 37 36 34 33 33 33 32 30 29 28 27 26 26 27 28 30 30 29 27 27 27 26 27 26 26 26 26 26
15 21 23 24 25 29 28 28 26 28 29 30 31 33 33 35 28 31 33 41 35 37 36 36 36 33 32 32 33 32 30 29 28 28 28 28 27 27 26 27 28 29 29 29 29 28 28 28 28 28 29 28 28 28
22 30 28 33 30 30 33 34 33 31 33 33 33 33 32 31 31 34 34 36 38 38 35 34 32 32 33 31 28 28 28 27 27 27 27 27 27 26 26 26 26 28 28 30 30 30 30 29 29 30 31 32 32 33
35 36 35 37 34 33 35 35 36 34 35 34 33 33 36 32 33 34 35 37 39 34 31 29 30 31 30 28 28 27 26 26 26 27 25 26 27 28 28 29 29 28 29 32 34 33 32 30 31 32 32 33 33 36
37 38 36 35 34 34 35 34 33 32 34 34 35 33 31 34 35 32 36 33 30 29 29 28 27 27 26 27 25 25 24 25 26 25 25 26 26 28 29 31 31 29 31 32 34 36 35 33 32 32 35 37 40 41
37 39 35 36 37 39 39 38 36 36 34 32 33 33 32 29 31 33 30 26 29 27 27 27 26 25 26 25 24 25 26 27 27 28 30 29 29 29 29 29 30 24 28 31 31 31 32 32 32 33 38 37 37 40
38 41 38 39 40 39 40 38 39 40 38 40 37 34 32 31 31 32 28 27 29 26 27 28 26 25 26 25 26 28 29 30 30 30 31 30 30 28 29 30 31 33 33 37 30 25 26 26 28 31 34 36 37 43
38 42 37 39 37 37 38 41 42 45 45 41 41 36 35 32 30 29 29 28 27 27 26 26 28 27 29 31 31 30 33 32 30 29 32 32 31 32 36 36 34 33 36 40 34 33 30 33 33 36 36 36 37 37
45 45 40 42 38 42 45 49 50 48 47 47 50 42 40 40 35 34 30 30 33 37 35 35 37 40 36 36 38 38 32 34 34 32 32 32 34 34 33 32 32 36 38 38 36 37 35 35 37 36 35 34 34 33
47 46 40 36 39 45 48 48 49 45 47 45 42 49 41 39 37 33 35 35 37 36 32 35 35 29 32 30 36 33 30 32 37 32 32 31 31 30 29 30 32 35 36 34 34 34 34 34 32 32 32 33 33 33
51 52 52 46 42 41 46 45 44 43 45 46 44 48 49 43 35 32 34 36 33 30 30 30 29 33 33 32 31 30 29 29 29 24 23 24 25 25 27 28 31 32 31 31 30 30 31 31 30 30 31 31 31 32

GFSWCAN_con_lsi_003.txt.gz
Lid_Strength_Index
2 2 2 2 2 2 2 2 2 2 2 1 1 1 -0 -1 -1 1 4 4 4 8 8 8 8 10 11 13 18 17 15 17 17 18 24 17 22 17 19 17 18 20 26 28 29 29 25 13 14 17 15 13 12 12
2 2 2 2 2 2 1 1 1 1 1 0 -0 -0 -1 -1 -1 -1 4 2 2 6 7 7 6 6 7 8 10 14 13 19 14 19 21 21 24 23 22 26 15 21 17 22 20 20 12 11 12 10 10 12 12 11
2 2 1 1 1 1 1 1 1 1 0 0 -0 -0 -0 -1 -1 -0 3 4 4 6 7 7 8 6 5 5 5 10 13 9 10 10 14 14 18 16 21 22 18 15 13 16 17 13 12 11 10 10 10 10 10 10
1 1 1 1 1 1 0 0 0 0 0 0 0 -0 -0 -1 -1 -1 2 3 4 6 10 12 8 8 5 5 5 6 7 8 8 8 11 13 17 12 16 15 16 14 14 15 15 13 11 10 9 9 9 9 10 10
1 0 0 0 0 0 -0 -0 -0 0 0 0 0 -0 0 0 -0 -0 1 2 2 6 13 11 12 8 7 7 7 6 7 8 8 10 11 13 13 12 13 12 15 12 13 14 15 10 9 9 9 8 9 10 11 12
0 0 -0 -0 -0 -0 -0 -0 -0 0 0 0 1 0 0 0 0 2 6 3 3 3 7 12 10 13 9 8 8 8 7 8 8 9 10 9 10 10 13 16 12 10 9 8 9 7 8 7 8 10 11 12 11 12
1 0 0 -0 -0 -0 -0 -0 0 0 0 1 1 1 0 0 2 5 7 7 2 2 8 11 15 13 10 10 12 9 8 8 8 9 10 9 10 8 11 14 11 9 8 8 9 11 10 9 11 12 12 12 14 14
1 1 1 0 0 0 0 0 0 1 1 1 1 1 0 0 1 4 2 2 2 5 7 12 18 17 12 15 15 9 9 8 8 9 10 9 8 8 12 10 8 8 10 13 14 13 13 13 13 14 14 15 17 17
2 2 1 1 0 0 0 0 1 1 1 1 1 1 3 4 6 6 0 0 2 5 10 12 19 20 11 12 10 12 8 11 7 10 10 9 10 12 11 9 11 17 17 18 16 16 16 17 17 17 17 17 18 18
2 2 2 1 1 1 1 1 1 1 1 1 3 6 8 6 1 1 3 6 6 7 7 12 19 20 11 12 18 16 10 11 14 12 8 10 12 11 16 17 17 17 19 19 20 19 21 21 20 19 19 19 19 19
2 2 1 2 2 2 1 1 1 1 1 4 7 8 6 2 5 7 10 11 10 12 10 16 14 14 11 17 15 9 11 10 14 17 15 17 20 14 18 19 18 18 18 20 21 20 20 21 21 21 20 20 21 22
2 2 2 2 2 2 1 1 1 2 4 4 5 4 4 6 8 11 12 11 12 17 20 14 12 11 14 9 11 9 12 11 15 19 21 25 16 22 22 22 21 20 22 23 22 22 21 21 21 22 23 23 23 23
3 2 2 2 2 1 1 1 0 1 1 3 5 8 8 9 13 15 18 18 19 23 23 19 17 13 9 8 9 10 13 15 20 22 21 18 22 23 25 24 23 23 24 24 24 23 23 23 23 24 25 24 24 25
3 3 2 2 2 2 1 1 0 0 3 7 9 13 12 14 13 18 21 19 17 18 20 19 20 12 11 11 9 14 12 17 19 20 21 27 27 29 27 25 29 26 26 26 26 25 25 25 25 25 25 25 25 25
3 3 2 2 2 2 1 1 0 1 5 8 8 14 14 20 26 27 28 23 21 19 16 17 16 8 11 11 10 12 15 16 18 20 26 27 26 28 27 28 29 28 27 27 27 27 27 26 26 26 26 25 24 23
2 2 4 2 2 1 1 1 3 3 5 7 10 14 18 21 25 24 25 20 17 14 16 14 12 12 13 12 14 15 18 21 20 29 27 27 31 32 32 32 30 29 29 28 28 28 27 27 27 27 26 25 24 24
1 8 2 1 1 1 1 6 5 6 8 13 17 21 20 18 20 23 20 19 17 18 20 14 15 15 13 14 17 18 19 25 30 33 34 33 34 33 33 32 31 31 30 30 29 28 27 28 28 26 26 24 24 24
9 4 1 0 2 3 5 6 9 13 18 18 17 23 23 24 23 23 25 19 19 20 21 17 16 19 19 22 22 28 32 36 37 36 32 32 35 34 35 33 31 31 31 30 30 32 31 28 27 25 25 24 24 24
2 3 0 0 2 5 7 12 12 18 21 23 21 22 23 24 22 23 25 20 21 22 20 24 24 25 23 31 34 38 40 38 34 29 30 32 30 34 31 31 30 33 31 32 29 25 25 25 25 24 24 24 25 24
2 1 1 -1 2 7 12 15 14 18 21 21 22 23 24 24 25 29 31 24 22 26 22 24 26 33 28 30 32 33 31 29 34 36 33 29 29 34 30 31 29 28 26 25 26 25 26 26 25 24 24 24 25 25
5 4 4 8 11 12 15 16 19 19 21 22 22 23 25 28 33 35 34 25 27 25 28 36 39 38 38 38 36 35 30 29 33 34 34 35 30 30 29 26 26 26 27 28 28 27 27 27 26 25 24 24 24 24
8 6 9 9 13 14 16 17 18 19 22 24 24 27 31 33 35 35 30 30 30 33 36 36 37 38 38 35 36 39 37 38 38 34 30 29 30 26 26 27 28 29 28 28 29 28 28 27 26 26 25 25 24 24
11 11 15 16 17 18 21 18 22 25 24 27 29 29 32 36 35 26 30 36 36 34 40 39 40 42 38 39 39 37 37 34 33 32 29 27 26 26 26 26 28 29 29 28 28 28 28 27 27 27 27 26 26 27
15 21 24 25 24 25 27 27 25 26 28 30 31 33 35 37 30 32 33 40 37 38 38 38 39 35 35 35 34 34 34 34 30 29 28 27 26 26 26 26 27 28 28 29 28 28 28 28 28 29 29 30 30 31
21 30 29 32 31 31 33 35 34 31 33 37 35 35 33 37 34 35 34 35 39 39 38 40 38 35 36 37 33 32 29 28 28 28 27 27 26 26 26 25 26 27 28 29 30 31 30 30 30 30 30 32 32 33
34 36 34 40 35 33 36 35 37 36 37 36 37 37 40 37 35 33 34 37 40 37 36 31 32 34 33 30 29 27 27 27 28 28 27 26 26 28 29 29 29 28 29 30 32 33 33 31 31 31 31 32 33 39
37 38 36 37 35 36 35 36 37 36 37 35 38 37 36 34 35 32 36 35 35 33 29 29 29 29 29 28 26 26 25 26 26 26 27 27 26 26 27 29 29 28 30 31 32 33 34 33 32 32 33 37 40 42
38 40 36 37 39 41 40 41 39 38 37 36 37 35 34 32 31 33 32 28 30 30 30 29 26 26 26 25 25 25 25 28 29 28 29 28 28 28 28 28 28 23 26 30 31 31 34 33 33 31 33 34 34 39
39 42 40 38 40 38 39 37 38 39 38 40 36 36 34 33 35 36 31 28 32 29 28 27 27 27 27 26 26 27 28 29 29 29 30 30 30 27 29 29 30 31 33 35 29 25 27 28 28 28 33 34 34 41
39 42 34 35 35 35 38 43 42 46 46 43 43 37 36 36 34 32 30 30 27 27 27 27 28 27 29 31 32 33 36 33 30 30 33 32 31 32 36 36 35 35 36 40 34 33 29 31 33 36 35 35 36 36
46 46 41 42 39 43 46 51 52 50 48 48 51 43 40 39 35 32 29 28 28 33 33 34 36 40 35 37 37 37 32 34 35 32 33 33 34 34 33 32 31 35 38 37 36 37 35 35 37 35 34 34 33 32
47 47 41 37 39 45 50 50 51 47 49 46 43 50 42 40 35 32 34 35 38 37 33 36 36 30 32 31 36 33 29 32 35 32 32 31 30 29 29 29 31 34 35 33 34 34 34 33 32 32 31 32 32 32
51 53 53 46 42 41 47 46 45 44 46 46 45 49 49 43 35 32 34 38 34 32 31 31 30 34 33 31 31 30 28 28 28 24 22 23 25 25 26 27 30 32 32 32 31 31 32 32 31 31 31 31 31 31

GFSWCAN_con_lsi_006.txt.gz
Lid_Strength_Index
2 2 2 2 2 2 2 2 2 2 2 2 3 2 2 1 1 2 5 5 6 9 9 9 9 11 11 12 16 16 15 16 16 22 25 17 22 17 19 17 18 19 25 28 30 30 27 14 14 18 16 14 14 13
2 2 2 2 2 2 2 2 2 2 2 2 2 2 2 1 1 0 4 3 2 6 8 7 6 5 6 8 11 15 13 18 13 17 20 20 23 23 21 24 15 21 17 22 20 21 13 11 12 10 11 13 12 11
2 2 2 2 2 2 2 2 2 2 2 2 1 2 1 0 0 0 2 2 3 6 6 7 8 5 5 5 5 10 14 9 11 9 13 13 17 15 21 21 18 15 13 15 15 14 13 11 10 10 10 10 10 10
2 2 2 2 2 1 1 1 1 1 1 1 1 1 0 0 -0 -1 2 2 3 5 9 10 8 8 5 5 5 6 7 8 8 8 10 13 15 11 14 14 15 14 14 16 15 13 11 11 10 9 9 9 10 10
1 1 1 1 1 1 1 0 0 0 0 -0 0 0 -0 -0 -0 -0 1 1 2 5 10 12 13 9 7 6 6 6 7 8 8 10 11 13 12 11 12 12 14 12 13 15 15 11 10 10 9 9 10 10 12 12
1 1 0 0 0 0 0 -0 -0 -0 -1 -1 -1 -0 -0 -0 -0 3 6 2 1 2 7 11 9 12 9 8 8 8 8 8 8 9 10 10 9 10 13 15 12 10 10 9 10 8 8 8 9 11 12 13 12 13
1 1 1 1 0 0 -0 -0 -1 -1 -1 -1 -1 -1 -0 0 2 5 7 6 1 2 7 10 12 14 10 9 11 9 8 9 8 9 11 10 10 9 11 15 11 10 9 8 10 11 9 10 12 13 12 13 14 14
1 1 1 1 1 0 0 -0 -0 -0 -0 -1 -1 -0 -0 0 1 4 2 1 1 4 6 11 14 18 12 15 14 9 10 9 9 10 11 11 9 9 13 11 9 8 11 13 14 14 14 14 14 14 14 15 17 17
2 2 2 2 1 1 1 0 -0 -0 -0 -0 -0 -0 2 4 6 5 0 -0 1 5 10 11 19 21 11 12 11 13 9 13 9 11 11 10 14 15 12 9 9 15 15 17 17 16 16 17 17 17 18 18 19 18
3 2 2 2 1 1 1 1 0 -0 -0 -0 1 5 8 6 2 1 4 6 6 6 7 11 21 21 11 13 15 14 10 12 14 14 10 12 13 10 14 16 17 17 18 18 20 19 21 22 20 20 20 19 19 19
3 3 2 2 1 1 1 0 0 0 -0 3 5 7 6 2 6 7 9 10 9 11 10 14 15 16 11 13 13 10 12 14 18 17 15 19 22 13 18 18 17 18 19 20 21 21 21 21 21 21 20 20 21 22
3 3 3 2 2 1 1 0 0 2 4 4 4 3 3 6 9 11 12 12 13 16 19 16 13 10 11 9 12 11 14 14 18 20 15 18 16 20 21 21 21 21 24 24 23 23 22 21 21 22 23 23 23 23
3 3 3 2 2 1 1 1 0 0 1 3 5 7 7 8 12 14 17 19 21 24 21 17 15 11 11 9 11 12 15 17 21 18 18 19 21 24 25 24 24 24 25 25 24 24 23 24 23 24 25 24 25 25
3 3 3 2 2 1 1 0 0 0 3 7 9 12 12 13 15 18 20 21 17 18 20 17 15 12 13 12 11 15 15 15 17 18 22 23 27 28 27 25 28 28 29 27 27 26 26 26 25 25 26 26 27 27
4 3 3 3 2 2 1 1 0 2 4 8 10 14 12 21 25 29 29 21 18 16 13 15 17 10 16 13 10 14 17 17 17 19 22 27 26 25 26 29 32 31 29 29 29 30 28 27 28 28 28 28 28 27
3 3 6 3 2 1 1 1 2 3 5 7 11 15 24 21 27 26 29 25 20 14 17 14 17 13 14 12 13 14 17 20 18 27 28 25 26 28 32 33 31 32 32 32 31 31 29 29 29 28 28 29 27 26
2 5 2 2 1 1 0 5 5 8 10 13 18 22 23 20 20 25 25 22 16 18 20 15 15 16 13 16 19 20 20 24 29 28 28 30 31 32 34 35 34 34 33 33 35 33 32 31 31 32 31 28 26 24
11 6 1 0 1 2 7 8 10 12 17 20 20 28 28 28 28 24 24 17 16 15 15 15 14 17 19 21 23 23 29 35 36 34 32 33 36 37 38 35 33 34 33 33 33 33 37 33 31 28 26 24 24 24
2 3 0 0 1 6 9 14 12 18 26 26 24 23 25 27 22 22 21 18 19 19 17 17 16 20 22 29 31 37 39 36 33 30 30 33 31 35 35 35 34 35 34 35 34 30 27 26 25 25 24 24 25 24
2 1 0 0 2 8 13 15 13 18 26 24 23 26 23 22 23 25 22 19 18 19 19 20 22 31 29 32 33 33 32 30 34 36 34 29 29 35 32 34 32 33 32 30 27 24 25 26 25 25 24 24 24 25
5 5 4 7 10 12 14 15 19 18 20 21 21 21 23 24 26 26 25 24 20 21 26 36 38 39 41 41 39 37 31 30 34 34 33 33 31 32 32 32 32 31 27 27 27 27 27 27 27 26 25 25 24 24
9 6 9 9 12 15 17 17 19 20 22 24 22 23 24 24 29 31 28 26 29 33 35 36 39 40 39 37 37 40 38 39 40 35 31 31 31 29 31 30 27 28 27 28 28 28 28 27 26 26 26 26 25 25
11 11 14 15 15 17 21 17 20 22 22 24 25 24 27 28 30 25 28 35 36 35 41 42 42 44 39 41 42 40 41 38 36 34 31 29 27 27 27 27 27 28 28 27 27 28 28 27 27 27 27 27 28 28
15 22 23 23 20 23 23 24 22 23 25 26 28 31 33 36 30 31 32 39 37 39 39 39 41 36 37 37 36 35 35 36 34 33 31 29 27 27 27 26 26 27 27 27 28 28 28 28 28 28 29 31 31 31
20 29 28 31 29 26 28 31 31 29 31 36 34 33 33 37 33 34 33 35 40 40 39 43 41 37 37 40 38 37 36 32 30 31 28 27 27 26 27 26 26 27 27 29 29 30 30 30 30 30 30 33 33 33
34 36 34 41 34 32 35 33 36 35 37 35 37 39 42 37 34 32 34 36 40 38 37 33 33 36 35 34 32 30 29 27 27 28 27 26 26 27 29 28 29 28 28 30 32 32 31 30 32 31 30 30 31 34
35 37 36 37 36 37 36 38 38 36 36 34 38 36 36 33 34 31 35 35 35 35 33 30 28 30 31 33 29 28 26 25 26 26 27 27 26 26 27 28 28 27 28 29 30 32 32 32 31 31 31 32 37 38
39 41 36 38 39 43 40 41 39 37 37 38 37 34 32 31 31 31 30 31 35 33 32 32 30 30 30 26 26 24 24 27 28 27 27 27 27 27 27 26 26 22 26 27 28 29 31 32 32 33 32 32 31 37
39 43 41 38 38 35 38 37 38 40 39 41 35 34 34 33 35 37 33 30 33 30 30 29 28 28 26 25 25 25 26 27 27 28 30 29 28 26 27 27 28 28 29 31 26 24 27 30 31 30 29 31 33 40
39 43 35 37 36 36 39 43 43 47 47 44 44 37 36 37 37 38 35 34 31 30 31 30 29 26 26 26 28 28 31 30 27 28 31 31 29 31 35 34 32 33 36 39 33 32 29 32 33 36 36 35 36 36
47 47 41 42 38 43 47 52 53 52 50 50 53 44 41 42 38 38 36 33 32 31 30 30 33 37 34 36 36 35 31 33 34 32 33 33 34 34 33 32 32 34 37 36 35 36 35 36 38 36 35 34 33 32
48 48 42 37 39 46 51 51 52 47 49 46 43 51 42 39 34 32 32 35 36 35 32 36 37 30 33 31 36 35 30 35 36 32 32 30 29 29 29 29 32 35 35 33 33 34 35 35 33 32 31 32 32 32
49 53 54 46 43 41 46 46 45 43 45 45 44 50 49 43 35 32 34 40 36 35 35 33 33 37 36 35 32 32 29 30 31 24 23 23 24 25 27 29 30 32 32 31 31 31 32 32 31 31 31 31 30 30

GFSWCAN_con_lsi_009.txt.gz
Lid_Strength_Index
2 1 1 2 2 2 1 1 2 1 1 1 2 2 2 2 1 3 5 5 7 10 11 11 10 13 13 15 18 17 16 17 17 21 23 17 22 16 18 16 17 18 24 29 29 27 24 14 14 17 15 13 13 13
2 2 1 1 1 1 1 1 2 1 1 2 2 2 2 2 1 2 6 4 4 8 11 9 8 8 8 9 11 16 13 18 12 17 20 19 23 21 20 23 15 19 16 20 19 20 13 12 12 10 10 11 11 12
2 2 2 2 2 2 1 2 2 2 2 2 2 2 2 2 2 2 6 5 5 8 8 9 10 8 7 6 5 11 14 9 10 9 13 13 17 15 23 21 18 15 13 16 15 13 12 11 10 10 10 10 10 10
2 2 2 2 2 2 2 2 1 1 2 2 2 2 2 2 2 1 5 3 4 6 10 10 9 8 5 5 6 5 7 8 8 8 10 13 17 11 15 14 15 13 14 16 15 12 11 11 10 9 9 9 10 11
1 1 1 1 1 1 1 1 1 1 1 1 1 1 1 1 1 2 3 3 2 5 9 9 10 8 6 5 6 6 7 7 8 9 11 12 12 11 14 12 14 11 13 14 15 11 11 11 9 10 10 10 12 13
1 1 1 1 1 1 0 0 0 0 0 0 -0 -0 -0 -0 -0 3 6 3 1 1 7 10 9 12 9 7 7 7 6 7 7 9 10 10 9 10 13 16 12 10 9 9 11 9 9 9 12 12 12 13 13 14
1 1 1 1 1 1 0 0 -0 -0 -0 -1 -1 -1 -1 -1 1 5 7 5 1 1 7 10 11 12 9 10 11 9 7 7 7 8 10 10 11 8 12 15 11 9 9 9 8 12 11 10 12 14 13 14 14 15
2 2 1 1 1 1 1 0 0 -0 -0 -1 -1 -1 -1 -1 -0 3 2 0 1 4 6 11 13 18 12 14 14 9 10 8 8 9 11 11 10 10 14 11 9 9 8 11 14 14 14 14 14 15 15 16 17 17
2 2 2 2 2 1 1 1 1 0 -0 -0 -1 -1 1 2 5 6 0 -0 1 5 9 11 15 19 11 13 11 13 9 12 9 11 11 11 16 16 13 10 9 9 13 15 16 16 16 17 17 17 18 19 19 19
3 3 3 2 2 2 2 1 1 1 0 -0 1 4 7 5 1 1 5 6 6 7 8 11 21 19 11 13 16 14 11 13 15 13 10 13 14 10 10 17 16 17 18 17 18 20 21 22 20 20 20 19 19 19
3 3 3 3 3 2 2 1 1 1 0 3 6 7 5 1 5 7 9 10 10 11 8 13 16 19 12 14 14 10 12 11 15 17 15 25 23 13 17 19 18 19 19 20 20 20 20 21 22 21 21 20 21 21
4 3 4 3 3 3 2 2 1 2 4 4 4 3 3 5 8 10 11 12 15 17 19 18 16 12 11 9 11 11 13 12 15 23 20 24 16 18 20 21 21 21 22 23 23 23 22 21 22 22 23 23 23 23
3 3 3 3 3 3 2 1 1 1 1 3 5 8 8 8 12 14 17 20 22 24 21 18 15 11 10 9 10 11 14 15 21 18 20 19 20 24 24 23 24 24 24 24 24 24 24 24 24 25 25 24 25 25
3 3 3 3 3 3 2 2 1 1 3 7 9 12 12 13 12 18 18 18 17 17 18 16 18 13 12 11 10 14 14 16 19 23 22 19 26 27 26 25 27 27 28 27 29 27 27 26 26 26 27 26 27 28
3 3 3 3 3 2 2 2 1 2 4 8 9 13 12 19 26 30 31 21 22 18 13 15 15 9 12 12 11 13 17 19 21 20 20 27 26 26 26 27 30 29 30 31 31 32 29 28 29 29 29 30 31 30
3 3 6 3 3 3 2 2 2 3 5 7 11 14 19 18 24 25 29 21 21 14 16 13 15 13 14 13 14 16 20 22 17 26 30 26 28 28 30 29 31 33 34 33 33 34 30 30 30 30 31 31 30 31
3 10 3 3 3 2 1 4 4 10 10 13 17 20 17 16 16 19 20 19 16 17 18 16 16 16 13 15 18 21 19 20 30 33 28 27 27 27 29 36 35 35 35 36 37 36 35 33 37 37 33 30 31 28
7 7 2 1 2 5 9 10 10 12 17 19 16 21 22 23 22 22 24 18 15 17 18 17 13 17 19 20 23 23 30 34 32 28 27 30 35 37 38 36 35 36 35 36 37 36 38 36 34 30 31 28 24 24
4 3 1 1 2 8 11 14 13 18 24 24 22 21 23 24 22 22 22 18 18 18 17 17 15 17 20 26 29 35 38 32 31 28 29 33 32 36 36 37 35 36 36 36 35 33 32 32 29 25 24 23 24 23
3 2 2 2 3 9 14 16 13 18 21 22 25 26 24 25 24 26 24 19 18 17 19 17 19 28 28 31 32 33 31 30 32 35 33 30 30 36 34 35 32 35 35 35 34 27 28 26 24 25 25 24 24 25
6 6 4 8 11 13 15 17 20 19 21 24 24 23 25 25 30 29 26 22 18 17 21 31 30 31 37 41 40 38 32 30 34 33 32 32 31 33 34 34 35 35 33 33 30 27 26 27 26 26 26 25 24 24
9 6 10 8 13 18 19 19 20 19 24 26 24 24 27 29 30 28 26 23 21 27 28 30 35 38 38 37 38 41 40 40 41 35 32 31 30 28 28 28 28 31 28 28 27 27 27 27 26 26 26 26 25 26
10 10 13 14 16 20 23 20 25 25 22 25 26 24 25 26 27 23 22 28 33 35 41 41 43 46 41 44 44 43 43 38 37 36 34 30 28 27 26 27 26 28 27 26 26 27 27 26 26 27 27 27 28 28
15 22 23 23 20 23 24 24 22 24 23 24 24 26 27 28 28 27 29 38 37 40 41 41 42 37 38 38 38 38 38 39 38 37 37 33 31 27 27 27 27 26 26 26 26 27 27 28 27 27 28 29 30 31
20 29 28 31 28 28 26 26 26 23 24 28 27 28 31 38 33 34 32 35 40 40 40 45 42 38 37 41 40 39 40 35 32 33 31 30 29 27 27 26 26 26 26 27 28 28 29 29 29 29 29 31 31 31
33 36 33 40 33 29 31 27 31 33 36 35 37 39 41 35 31 30 34 36 40 39 39 35 34 38 37 36 33 32 30 29 29 28 27 26 26 26 28 28 28 26 26 27 29 30 30 29 30 30 30 30 29 31
35 37 37 37 35 35 32 34 35 36 36 34 38 37 36 32 33 31 35 36 35 36 36 33 32 31 29 31 32 30 28 25 25 25 26 27 26 26 26 28 27 26 26 28 29 30 31 31 30 30 30 30 31 31
39 41 36 38 39 44 39 40 38 36 37 39 38 33 31 30 31 30 30 29 35 37 34 31 29 29 30 27 26 24 24 25 26 26 26 26 26 26 27 25 25 21 27 28 28 28 29 30 31 31 31 31 30 32
36 42 42 38 39 36 39 39 39 41 39 41 34 32 31 30 33 32 29 30 33 30 29 29 29 29 26 25 24 24 25 26 27 27 29 28 28 26 28 28 28 28 29 31 25 23 27 29 29 29 29 30 30 37
39 42 33 34 33 34 38 41 43 48 48 44 44 36 34 33 32 35 37 35 32 31 30 28 27 26 26 25 25 26 31 30 29 28 31 32 30 32 36 35 34 33 35 37 31 30 28 30 32 35 35 34 35 34
48 48 41 42 38 43 46 53 54 52 51 51 54 45 41 41 38 39 37 36 34 33 29 29 28 28 26 27 32 33 30 33 36 33 33 33 33 33 32 31 31 33 34 34 34 34 33 35 36 35 35 34 33 31
47 48 43 38 40 47 52 52 52 48 48 43 42 49 40 35 31 28 29 31 31 30 27 29 28 27 32 33 37 37 30 34 33 30 30 29 29 29 29 29 31 35 35 33 33 33 34 34 33 32 31 32 32 32
46 45 46 43 41 41 47 47 45 43 46 45 43 43 42 38 30 29 30 33 30 30 29 32 34 37 35 34 33 31 27 27 27 24 22 23 24 24 26 28 30 31 32 31 31 31 32 32 31 31 31 31 30 30

GFSWCAN_con_lsi_015.txt.gz
Lid_Strength_Index
1 2 1 1 1 1 1 1 1 1 1 1 1 1 1 1 1 2 3 2 5 8 8 8 7 9 9 9 11 12 12 12 12 15 15 15 16 15 16 14 15 16 16 16 15 17 19 9 10 13 9 8 7 8
1 2 1 1 1 1 1 1 1 0 0 1 1 1 1 1 0 1 5 3 2 7 7 5 5 5 6 7 8 11 9 12 10 12 12 12 15 14 15 18 12 16 13 14 13 13 9 8 8 7 6 7 8 7
1 1 1 1 1 1 1 1 1 1 1 1 1 1 1 1 0 1 3 4 5 8 8 8 8 5 5 5 4 10 9 8 9 7 9 11 14 12 16 15 12 11 10 12 12 10 9 8 7 6 6 7 7 6
1 1 1 1 1 1 1 1 1 1 1 1 1 0 0 0 0 0 2 3 4 7 10 9 6 6 4 4 5 5 6 7 7 8 9 10 13 10 12 10 11 10 9 11 11 10 9 8 7 7 6 6 7 6
1 1 1 1 1 1 1 1 0 0 1 1 1 1 1 1 1 1 2 3 3 7 10 9 8 6 5 5 5 5 6 6 8 9 10 11 8 9 9 9 11 9 10 11 12 8 8 9 7 6 7 7 7 8
1 1 1 1 1 1 1 1 1 0 0 -0 -0 0 0 0 0 2 6 3 3 4 8 10 6 7 6 6 6 6 5 5 5 7 8 7 6 8 11 12 9 8 7 6 8 6 7 6 6 6 7 7 8 10
2 2 2 1 1 1 1 1 1 1 0 -0 -1 -1 -1 -1 0 5 6 3 1 2 6 9 9 8 7 6 6 6 4 5 5 7 8 7 7 7 10 13 9 7 6 6 6 6 8 7 8 7 9 11 12 13
2 2 2 2 2 1 1 1 1 0 0 0 -0 -1 -1 -1 -0 3 1 1 -0 3 5 9 9 9 7 9 9 6 7 6 6 7 6 8 7 8 11 9 8 7 6 6 6 6 7 8 10 12 12 13 15 14
3 3 3 2 2 2 1 1 1 0 0 0 -0 -1 0 2 5 4 -1 -1 -0 3 8 8 10 12 9 8 7 8 7 10 6 9 8 8 9 12 10 8 8 7 7 7 7 12 13 12 11 13 14 15 15 15
3 3 3 2 2 2 2 1 1 1 0 0 1 5 6 5 -0 -0 3 5 5 5 5 9 6 10 8 9 10 9 8 10 12 10 7 10 11 8 7 7 6 9 10 11 13 14 16 16 14 14 16 16 16 16
3 3 3 3 3 2 2 2 1 1 1 4 6 6 3 0 3 5 8 8 8 9 7 8 8 11 8 10 10 8 10 9 13 11 11 12 12 9 7 7 12 13 14 16 15 16 17 17 15 16 17 18 18 18
3 3 3 3 3 2 2 2 2 2 3 3 4 3 3 5 7 9 10 8 9 10 8 10 9 7 8 7 9 9 11 10 13 10 11 14 10 9 12 16 17 16 17 19 19 19 19 18 19 19 19 19 20 20
3 3 3 3 3 2 2 2 2 1 1 3 5 6 7 7 11 12 14 12 12 12 11 10 11 8 8 8 9 10 12 13 12 13 14 11 10 16 18 20 22 21 21 21 21 21 21 21 22 22 22 21 21 22
3 3 3 2 2 2 2 2 2 2 4 6 8 11 10 11 11 11 11 9 8 8 10 8 9 10 8 10 9 12 11 13 15 16 15 10 10 18 20 20 22 23 23 22 23 23 23 23 23 22 23 23 24 24
3 3 3 3 2 2 2 2 1 2 4 8 8 12 11 10 13 15 16 11 10 7 9 10 10 9 10 11 10 12 15 16 14 14 10 10 19 22 23 22 23 24 24 24 24 25 24 24 24 24 24 25 24 25
3 3 3 2 2 2 2 2 2 3 5 7 8 12 14 12 12 16 15 12 14 9 8 8 11 12 12 11 13 14 15 16 12 10 15 20 23 22 23 24 24 25 25 25 25 25 24 25 25 24 26 26 26 25
4 6 3 3 2 3 2 3 4 8 10 11 14 15 15 12 9 11 13 12 12 9 11 10 13 13 10 13 13 11 13 10 13 18 19 20 22 24 25 25 26 26 26 26 26 27 26 26 29 28 26 22 24 22
7 5 3 2 3 6 10 10 10 11 16 17 15 17 17 18 17 16 15 13 11 11 11 11 10 13 13 14 13 10 15 23 22 21 21 23 24 25 24 24 27 27 26 28 28 28 28 29 25 22 24 22 23 22
6 4 3 2 4 8 11 13 12 14 19 19 19 18 18 19 18 18 17 14 14 13 11 10 12 13 12 11 12 18 21 20 22 22 24 25 24 26 27 27 27 27 27 26 25 23 23 25 24 23 22 21 21 20
5 5 4 5 5 9 13 15 13 14 17 19 18 19 19 20 20 19 17 15 13 12 12 13 12 16 16 21 23 22 21 22 22 23 24 24 24 26 25 25 23 24 24 25 25 24 22 22 22 22 22 22 22 22
8 7 6 8 11 13 15 16 17 17 18 19 19 18 19 20 20 19 18 18 14 13 14 21 23 26 28 28 27 24 23 21 21 19 20 23 24 23 25 25 25 24 23 23 23 23 23 24 23 22 22 23 23 22
10 7 9 9 13 14 16 16 17 17 18 20 19 19 20 20 21 22 22 17 17 24 25 25 25 26 26 26 28 28 28 26 25 24 24 24 25 25 24 23 23 23 23 23 23 24 24 23 22 23 23 24 23 23
11 10 13 13 15 17 21 16 18 20 19 20 20 20 22 22 23 21 19 22 25 28 30 29 30 31 28 31 30 30 30 26 25 25 24 23 23 22 22 23 22 24 24 24 24 24 23 23 23 23 23 23 24 24
15 20 21 21 19 22 20 21 19 20 20 21 20 21 22 24 24 20 19 23 26 27 27 28 27 26 27 27 26 26 28 28 26 26 25 23 23 24 23 23 23 23 23 24 24 23 23 24 24 24 24 25 25 25
18 28 25 26 24 22 22 22 21 20 23 25 23 23 25 29 21 21 23 23 25 26 28 30 29 27 26 26 27 28 34 27 24 24 25 24 23 24 24 24 23 24 23 24 24 24 24 24 24 25 25 25 26 26
30 33 30 31 27 25 26 23 24 25 23 23 26 28 29 25 22 25 25 25 26 27 28 28 27 27 26 26 25 26 25 28 26 23 23 25 24 23 23 24 24 23 22 22 23 24 24 24 25 26 26 25 26 26
30 31 31 32 31 30 28 28 28 26 26 26 28 27 26 27 27 26 25 26 26 26 27 26 25 24 23 25 25 25 25 26 24 22 21 21 21 21 21 23 23 21 21 22 23 23 24 25 25 25 26 25 25 26
34 35 35 32 32 33 32 31 29 29 29 31 31 28 29 28 28 25 25 25 27 28 29 28 26 25 24 23 23 23 23 22 22 22 21 21 21 22 22 22 22 19 22 22 23 23 24 25 25 25 26 26 25 25
33 35 35 33 34 31 34 32 32 33 34 33 30 27 28 27 27 27 25 26 26 26 26 26 26 25 23 22 21 20 20 21 21 22 22 22 22 22 24 24 24 24 24 24 22 21 23 25 25 25 25 25 25 25
35 39 31 29 28 30 34 37 35 38 38 38 38 33 29 27 26 27 28 26 25 25 26 25 23 23 22 21 21 21 21 21 21 21 23 24 24 25 26 26 25 25 25 25 25 25 23 24 26 29 28 28 28 28
40 38 34 33 31 34 38 42 42 42 41 39 43 36 31 32 29 27 27 28 28 28 25 24 24 23 22 22 22 22 21 24 26 27 28 28 27 27 26 25 24 25 27 28 28 29 28 29 29 30 30 30 30 29
35 36 35 32 33 39 42 40 40 37 37 34 32 36 32 30 25 24 25 26 25 25 24 24 23 22 23 23 23 24 25 26 27 27 29 27 25 24 24 24 25 28 29 28 29 29 29 31 30 29 28 29 29 29
35 36 34 33 30 30 33 35 32 33 34 32 33 36 33 32 27 25 24 27 27 27 26 25 25 25 26 27 27 27 27 28 27 21 19 19 19 19 20 21 24 25 26 26 26 26 28 29 29 29 29 29 29 29

GFSWCAN_con_lsi_021.txt.gz
Lid_Strength_Index
1 1 1 1 1 1 1 1 1 1 1 2 2 2 2 2 2 4 7 7 10 14 11 11 10 12 12 13 16 16 16 16 16 20 21 17 21 17 20 18 19 19 22 25 27 29 25 14 15 17 15 13 13 13
1 1 1 1 1 1 1 1 1 1 1 1 1 1 1 1 1 3 6 5 6 11 12 8 8 7 9 9 13 17 16 19 14 18 20 19 24 22 22 24 16 20 17 21 19 20 14 13 13 11 11 12 11 11
1 1 2 2 1 1 1 1 1 1 1 1 1 0 0 1 1 2 4 4 6 9 9 9 12 7 6 7 7 14 15 11 11 11 16 18 22 16 24 22 19 16 15 17 18 15 14 12 11 10 9 9 9 9
1 1 2 1 1 1 1 1 1 1 1 1 1 1 1 1 0 1 4 4 5 8 12 14 8 9 6 6 7 8 9 9 10 10 15 18 21 13 18 15 16 15 15 17 17 13 13 12 10 9 9 8 9 9
0 0 1 1 1 1 1 1 1 1 1 1 1 0 0 0 0 1 2 3 3 7 13 15 12 8 6 7 7 8 8 10 11 13 15 17 15 14 16 13 15 12 14 15 16 11 11 10 9 8 8 8 9 9
-1 -0 0 1 1 1 1 1 1 1 1 1 1 0 0 -0 -0 3 7 3 3 4 8 12 11 13 9 7 7 8 8 9 9 10 12 12 11 11 15 19 12 11 10 9 11 9 8 7 7 8 9 9 9 9
-1 -1 0 0 0 1 1 1 1 2 2 1 1 1 0 -0 1 5 6 4 1 2 8 11 11 12 9 10 12 10 8 9 9 9 11 11 11 9 14 15 12 9 9 9 8 8 9 9 9 8 8 9 10 12
-1 -1 -0 0 0 0 1 1 1 2 2 1 1 1 1 0 0 3 3 2 1 4 7 11 12 16 10 10 11 8 8 7 8 9 11 11 9 9 13 11 9 8 8 9 9 8 7 8 10 11 12 13 15 14
-1 -1 -0 0 0 0 1 1 1 1 1 1 1 1 3 5 6 5 1 -0 1 5 9 10 14 17 9 10 8 9 8 11 7 10 11 9 13 14 12 9 9 8 8 8 8 12 13 11 11 13 14 15 15 15
-0 -1 -0 1 1 1 1 1 1 1 1 0 2 6 8 6 1 1 4 6 6 6 6 10 12 13 10 12 14 13 11 12 14 12 10 11 13 10 8 8 8 9 10 11 15 15 19 17 15 15 15 16 16 16
0 0 1 1 1 2 2 2 1 0 1 3 6 7 4 1 4 6 8 9 10 11 9 12 13 14 12 15 15 10 13 12 15 14 13 18 20 11 8 8 7 8 10 15 15 16 16 16 16 16 18 18 18 19
1 0 0 1 1 1 1 1 1 2 4 4 4 3 3 6 7 10 11 13 14 15 12 14 15 12 13 10 12 11 13 13 15 18 17 20 14 12 11 10 16 16 17 19 20 18 18 18 18 19 19 21 22 22
1 1 1 1 1 1 1 1 1 1 1 4 6 8 8 9 12 13 17 14 21 13 14 17 14 11 9 9 11 11 14 14 15 14 17 18 16 13 15 20 23 23 22 22 22 22 22 23 24 24 24 25 26 27
1 1 1 2 1 1 1 1 1 1 4 8 10 13 13 14 11 18 18 17 15 16 14 14 12 12 10 11 10 14 13 14 16 18 21 20 14 12 19 22 23 25 24 23 25 25 25 25 26 27 27 28 29 30
2 2 2 2 2 2 1 1 1 3 6 9 10 13 13 17 21 22 22 19 16 14 10 13 14 10 13 12 11 13 17 17 18 20 19 16 16 19 21 24 25 25 26 28 28 27 26 27 28 30 33 33 32 32
3 3 3 2 2 2 2 2 3 4 6 9 10 15 19 19 21 22 22 17 15 9 9 9 11 12 13 12 13 15 17 20 19 20 23 24 23 24 24 26 28 28 28 29 30 30 28 29 29 32 35 35 34 33
4 10 4 3 3 3 3 8 5 7 9 11 19 26 20 13 15 22 22 16 13 11 12 12 13 14 11 14 15 15 19 20 25 23 24 24 23 25 26 27 30 30 31 31 35 33 34 36 37 35 31 32 35 34
14 9 4 3 6 7 11 13 11 11 16 18 19 24 25 24 20 17 18 15 12 11 11 12 10 13 14 15 16 19 24 26 24 25 25 26 27 28 28 30 33 32 33 33 31 33 37 35 34 32 32 33 33 32
10 6 5 4 5 11 16 17 15 15 20 23 22 21 22 22 20 20 18 16 14 13 13 11 12 14 15 21 22 22 23 21 22 24 26 27 27 29 31 31 31 31 31 33 34 29 32 33 32 33 31 31 31 32
6 6 6 6 7 12 15 17 15 17 20 20 20 22 22 21 23 24 22 17 15 13 13 14 19 23 23 25 25 23 22 22 24 26 27 27 27 28 28 28 28 29 28 29 30 30 33 32 33 33 33 32 32 31
9 11 8 11 14 16 19 20 22 20 19 21 23 21 21 22 24 24 24 20 15 22 21 25 26 27 26 26 26 25 26 24 27 26 26 28 27 27 28 28 27 26 27 28 29 33 34 33 32 33 33 33 33 32
13 8 16 12 15 18 21 20 22 21 22 26 22 23 27 27 27 25 21 20 25 28 28 28 28 29 27 28 29 31 30 30 29 26 25 25 28 27 27 27 26 28 33 34 35 34 34 33 33 33 32 32 29 29
12 12 16 17 19 21 23 19 24 25 24 25 24 24 27 28 28 22 22 24 26 27 29 29 29 29 28 28 28 27 27 25 27 30 30 28 29 29 28 32 32 30 32 31 34 34 32 29 29 29 29 29 29 28
17 23 23 23 22 25 27 25 21 22 22 25 23 22 26 31 25 22 25 27 27 26 27 29 29 28 27 27 28 29 29 30 32 31 30 26 26 30 31 31 34 34 33 33 32 32 32 31 27 28 28 30 29 28
21 30 27 28 25 26 26 25 23 23 25 24 23 23 28 32 25 26 26 29 28 27 27 27 27 26 28 28 27 30 32 32 30 31 32 31 33 33 32 34 34 32 34 32 32 30 29 29 29 29 28 28 28 27
33 35 32 33 29 31 28 28 28 30 27 25 26 25 30 26 25 29 30 29 28 28 28 29 30 29 29 30 32 31 30 36 36 31 32 34 33 32 35 32 31 28 25 25 26 26 25 25 27 27 26 26 25 26
32 36 36 33 31 29 27 27 27 26 28 28 30 28 25 26 29 31 31 27 27 30 30 31 33 32 33 33 33 35 36 37 33 31 32 34 33 32 29 27 25 23 25 24 24 24 24 25 25 25 26 27 26 26
38 37 37 34 36 36 32 29 29 31 30 31 29 28 27 29 30 27 27 26 30 31 32 33 32 33 33 31 30 29 28 28 26 25 27 26 26 25 25 25 23 17 23 24 24 24 25 25 26 27 27 26 25 27
38 36 35 32 36 36 36 34 33 34 34 33 29 28 29 27 27 28 26 25 25 27 28 27 24 25 25 24 23 22 22 22 23 24 24 24 23 23 25 26 26 26 27 27 22 20 25 26 26 26 26 26 26 29
37 39 32 29 30 33 35 38 37 37 36 36 36 31 29 28 26 26 27 27 27 27 27 26 24 23 23 23 23 24 24 23 23 24 25 25 24 24 25 26 27 28 30 31 27 27 23 27 28 32 32 32 32 32
42 43 38 35 35 37 39 41 38 37 36 35 35 32 30 30 27 25 24 25 26 24 23 23 24 24 24 25 26 25 23 23 23 24 24 24 25 27 28 28 27 29 30 28 28 28 28 31 34 33 32 31 31 30
37 38 35 33 35 39 43 40 38 37 36 35 33 33 30 29 28 25 24 24 25 25 24 25 25 25 24 24 24 25 22 24 24 23 24 24 24 25 25 25 25 27 28 28 28 27 28 29 30 30 29 30 29 29
35 36 35 33 32 33 34 34 32 31 30 30 31 31 31 29 28 25 22 25 27 27 26 25 25 25 25 24 24 24 23 24 23 19 20 19 19 19 20 26 26 26 26 26 26 27 27 28 29 29 30 30 30 29

GFSWCAN_con_lsi_024.txt.gz
Lid_Strength_Index
2 1 1 1 1 1 1 1 1 1 1 1 1 1 2 4 4 6 9 9 12 16 14 13 13 15 15 15 17 17 15 15 16 17 19 18 21 18 19 18 19 20 21 23 24 23 24 14 14 17 14 13 13 13
1 1 1 1 1 1 1 1 1 1 1 1 1 1 1 1 2 3 9 8 9 14 14 10 10 10 11 10 13 16 14 17 14 17 19 17 21 22 21 23 16 19 17 21 19 19 13 13 12 11 12 13 12 13
1 1 1 1 1 1 1 1 1 1 0 1 1 1 1 1 1 2 6 7 7 10 12 11 12 9 8 9 9 14 15 12 12 12 17 18 22 17 23 22 20 16 15 17 18 15 14 12 11 12 11 11 11 11
1 1 1 1 1 1 1 1 1 1 0 0 0 0 0 0 0 1 5 4 6 8 13 14 10 10 7 8 9 9 10 10 11 11 16 20 22 14 19 16 17 16 15 18 17 14 14 13 12 11 11 11 10 10
1 -0 -0 0 0 1 0 0 1 1 1 1 1 0 0 0 -0 1 3 3 4 8 15 16 13 9 8 8 8 9 9 11 13 15 20 19 16 15 17 13 17 14 14 16 16 12 12 12 11 10 10 10 10 9
0 -1 -0 -0 -0 0 -0 0 0 0 0 1 1 1 0 -0 -0 2 7 3 3 4 9 15 12 13 9 9 9 10 10 11 12 12 16 14 11 11 14 16 13 11 11 10 11 9 10 9 9 9 9 9 9 9
-0 -0 -1 -1 -1 -1 -0 -0 -0 -0 0 1 1 2 1 0 1 6 7 5 1 3 8 12 15 13 10 11 13 11 10 12 10 11 12 13 12 9 12 17 12 11 10 9 9 9 10 9 10 9 9 9 10 12
-1 -1 -1 -1 -1 -1 -1 -1 -0 -0 0 1 1 1 1 0 0 3 3 1 1 5 7 11 12 14 10 11 11 8 9 8 9 9 11 12 10 10 14 12 10 9 8 9 8 8 7 7 10 10 11 13 14 13
-0 -0 -0 -0 -1 -1 -1 -1 -0 -0 0 1 1 1 4 4 6 5 1 0 1 5 10 10 17 19 10 10 9 9 7 11 7 10 11 9 12 14 13 10 9 9 9 8 9 12 12 11 9 11 14 16 14 14
-0 -0 -0 -1 -0 -1 -1 -1 -0 -0 0 0 2 5 8 7 2 1 3 6 6 7 7 10 17 16 11 13 13 11 10 11 14 11 10 11 13 10 10 10 9 8 9 11 13 12 18 17 14 14 15 16 15 16
1 -0 -0 -0 -1 -1 -0 -0 -0 -0 0 3 6 7 6 2 5 6 9 9 9 10 10 15 15 15 11 14 14 10 13 12 15 16 14 16 18 12 9 9 8 8 9 11 12 14 15 14 14 15 17 18 18 19
1 0 0 -0 -0 0 0 1 1 2 4 4 4 3 4 5 7 10 11 12 12 14 14 12 16 12 12 10 13 11 14 13 16 15 15 21 15 11 11 9 8 12 13 17 18 17 18 17 18 18 19 21 22 22
1 1 0 0 0 0 0 0 0 0 1 3 5 7 7 9 12 13 14 15 17 18 13 16 14 12 10 8 11 12 14 15 15 15 18 18 16 15 12 13 20 20 20 21 22 22 22 23 24 24 24 25 25 26
1 1 1 1 1 1 0 0 -0 0 4 8 9 12 12 13 13 15 18 17 15 16 15 16 12 13 11 12 11 14 12 14 16 18 21 16 17 14 15 21 20 21 22 22 24 24 25 25 26 27 27 28 28 29
2 2 2 2 1 1 1 0 -0 1 5 9 10 13 14 18 18 23 25 20 18 16 11 15 15 10 12 12 11 13 17 17 17 20 19 19 19 19 21 24 23 23 25 27 29 28 27 27 28 31 34 34 32 32
3 2 4 2 1 1 1 1 2 3 6 8 9 15 21 20 21 22 22 19 16 12 12 11 12 12 13 13 15 16 17 19 19 20 24 24 26 24 25 23 23 25 26 28 30 29 28 29 30 32 37 36 34 33
4 11 3 2 2 2 2 5 5 7 8 11 15 28 24 22 20 22 21 17 13 12 12 11 13 14 11 14 15 14 19 20 22 23 25 24 23 26 25 26 27 28 28 29 30 29 33 37 37 35 32 33 35 35
11 8 4 3 5 7 12 12 12 12 16 18 22 26 26 26 22 21 19 16 12 11 11 12 11 14 15 17 20 21 24 25 25 27 27 28 28 27 26 27 27 27 28 29 30 32 35 36 32 32 34 34 34 34
10 7 5 4 5 15 17 17 18 20 23 20 20 21 26 27 23 21 20 16 15 13 13 13 13 14 17 21 22 22 24 25 25 26 26 26 26 26 27 28 29 29 29 31 32 29 31 30 29 29 29 31 31 34
5 5 6 6 7 14 22 21 18 21 24 21 20 20 22 23 23 25 24 18 15 15 15 18 25 27 26 26 26 25 24 23 24 26 26 26 26 27 27 27 27 28 29 30 30 29 29 28 29 30 34 33 33 32
9 11 8 12 15 16 19 19 22 21 22 23 21 19 20 20 24 27 26 20 21 25 25 27 27 26 26 26 27 27 25 25 24 24 23 26 26 26 27 28 29 30 30 29 28 29 30 31 32 34 34 34 36 34
13 9 16 11 15 18 19 20 21 20 21 24 21 22 25 25 25 24 22 24 27 30 31 30 28 28 28 27 28 28 27 25 24 25 24 25 28 28 28 28 27 29 32 30 32 33 35 34 35 34 34 33 31 31
12 12 16 17 18 21 23 20 23 23 23 23 24 22 24 25 25 21 25 28 29 27 29 29 29 29 29 26 26 25 26 25 25 25 25 27 31 30 29 32 31 30 32 31 36 35 33 29 30 31 31 31 31 31
16 23 23 24 23 27 24 23 21 22 24 26 25 26 29 27 24 22 28 31 28 26 28 27 27 25 24 25 25 26 27 27 27 27 28 27 28 31 31 34 36 36 34 34 34 34 33 32 29 30 30 30 30 28
22 30 27 29 27 27 27 26 25 24 28 27 25 25 27 26 22 26 28 30 28 27 26 26 26 25 27 26 26 27 29 29 28 30 31 35 37 35 33 35 35 34 35 33 33 34 33 31 27 26 26 28 27 26
33 34 32 32 29 29 30 30 30 30 28 28 28 26 26 22 25 29 30 30 30 28 28 29 30 28 26 27 27 26 28 35 34 32 32 35 35 34 35 33 32 28 33 33 33 31 28 24 25 25 25 24 24 25
32 33 32 30 30 29 28 27 26 27 29 29 29 26 23 28 31 30 28 26 27 27 27 28 31 31 30 30 30 31 30 31 29 27 30 34 32 32 29 28 28 27 30 30 28 27 25 24 23 23 24 25 25 24
36 35 34 32 31 32 31 30 32 33 31 32 30 30 30 31 32 27 26 24 25 26 26 28 28 28 28 27 26 25 25 25 25 26 26 25 25 24 26 27 27 18 23 24 24 24 25 25 25 25 25 24 23 24
37 36 35 33 36 35 36 34 34 34 34 34 30 29 30 26 26 27 26 25 25 25 25 24 22 23 24 23 22 22 22 22 22 23 24 24 24 23 25 24 25 25 26 27 22 20 23 26 25 25 24 25 25 28
36 39 33 32 32 34 36 38 36 36 35 35 34 29 27 27 25 24 25 25 26 26 25 25 23 23 24 24 24 23 23 23 23 25 26 25 24 23 23 24 25 25 26 31 26 25 21 24 24 27 29 29 30 30
39 37 34 33 35 37 37 39 37 36 35 34 34 32 31 30 26 22 23 23 22 23 23 24 24 24 24 24 25 25 25 23 22 23 24 23 23 24 24 23 23 24 26 27 27 26 25 26 29 28 29 30 30 29
37 38 38 36 37 39 40 36 35 35 35 33 33 33 31 29 30 26 23 23 24 25 24 24 25 25 24 23 23 23 22 23 23 23 24 22 22 21 22 22 23 26 27 27 29 29 28 29 29 30 30 31 31 31
35 36 35 33 33 33 33 34 31 30 30 31 30 31 31 28 29 25 22 24 25 26 26 25 25 24 25 25 24 24 24 23 23 20 20 19 20 19 20 21 23 26 27 28 29 29 29 30 29 29 30 30 30 30

GFSWCAN_con_lsi_027.txt.gz
Lid_Strength_Index
2 2 2 1 1 1 1 1 1 1 1 1 1 1 2 2 4 7 9 9 11 14 13 12 13 13 14 14 17 17 15 16 17 18 18 19 21 20 21 20 21 21 22 24 24 24 24 15 15 17 15 14 14 14
2 2 1 1 1 1 1 1 1 1 1 1 1 1 1 1 2 4 8 8 9 14 15 11 11 11 12 12 15 17 16 18 15 18 20 19 22 21 21 23 18 20 18 20 19 19 14 14 13 12 12 13 13 13
2 2 1 1 1 1 1 1 1 1 1 1 0 0 1 1 1 2 6 8 8 13 13 14 14 12 11 11 11 15 17 14 14 14 19 19 21 18 24 22 20 17 16 17 18 16 15 13 11 12 11 12 11 11
2 1 1 1 1 1 1 1 1 1 1 1 1 0 0 0 1 2 6 5 7 11 16 14 11 12 8 9 10 10 12 12 12 13 16 19 21 15 19 17 18 16 16 19 18 15 14 12 12 11 11 11 12 11
2 1 1 1 1 1 1 0 1 0 1 0 0 0 0 0 0 1 3 4 4 10 15 16 13 10 9 9 9 10 10 11 12 15 19 20 16 16 17 15 18 15 16 17 18 12 12 12 11 11 11 11 11 11
2 1 2 1 0 0 0 -0 0 0 0 0 0 0 1 0 0 2 7 4 3 5 10 16 11 13 11 10 10 11 10 11 13 14 16 15 12 14 21 22 14 13 13 12 12 10 10 10 10 10 11 10 10 10
2 1 2 1 0 -0 -0 -1 -0 -0 0 -0 -0 0 0 0 1 7 7 5 2 3 8 13 17 14 11 12 14 12 11 12 12 14 16 13 13 12 16 21 13 12 12 11 9 9 10 9 10 9 9 9 10 12
1 1 1 1 -1 -0 -0 -0 -0 -1 -1 -1 -0 1 1 1 1 5 3 2 1 6 7 11 18 16 10 12 12 11 12 12 12 11 12 14 12 11 16 14 11 11 10 11 10 9 8 9 11 11 11 13 13 12
-0 -0 0 1 -0 -0 -0 -0 -0 -1 -1 -1 -1 -0 2 4 6 5 1 1 2 6 10 12 17 19 11 11 10 10 9 13 9 12 12 10 14 16 14 12 11 10 10 9 11 11 11 12 10 11 13 15 14 12
-0 -0 -0 1 -0 -0 -0 -0 -0 -0 -1 -1 2 5 8 6 2 1 3 6 7 7 7 11 19 21 12 14 15 13 11 12 13 12 10 11 13 11 12 12 10 9 8 11 14 14 19 17 14 13 13 13 13 15
-0 -0 -0 0 -0 -0 -0 -0 -0 -1 -0 4 6 7 7 1 6 8 11 10 10 11 9 12 17 17 12 17 16 10 13 12 15 16 13 15 19 12 10 10 8 9 10 11 10 10 13 13 13 13 17 18 18 19
1 -0 -0 -0 -0 -0 -0 -1 -0 2 3 3 4 3 3 6 8 11 12 13 11 15 13 13 16 14 16 13 15 12 14 13 16 14 15 19 16 11 12 10 9 8 11 12 14 13 16 16 18 17 18 20 22 22
1 0 0 1 1 0 -0 -0 -1 -0 0 3 5 7 7 8 12 13 15 16 16 19 13 16 15 13 12 11 14 13 16 16 15 15 16 18 13 16 13 12 17 22 20 19 21 20 21 23 24 24 24 25 25 26
1 1 1 1 1 1 1 1 0 0 4 8 9 12 12 14 12 11 17 17 17 17 15 16 13 14 12 12 11 15 13 15 17 18 21 15 17 18 19 21 21 21 23 21 23 23 24 24 26 27 27 28 27 28
1 1 1 1 1 1 1 1 -0 1 5 9 9 13 13 18 19 24 24 21 20 18 12 15 15 11 15 13 11 13 16 17 17 20 20 22 24 25 23 25 27 25 25 27 28 27 26 26 28 32 36 34 30 31
1 2 3 1 1 1 1 1 2 3 6 8 9 13 20 20 20 20 21 18 16 13 13 11 13 12 13 13 15 16 17 18 18 22 25 25 25 28 29 29 28 27 28 28 27 27 26 28 28 31 37 33 33 32
3 11 3 3 2 2 3 8 7 8 11 11 14 25 26 23 18 20 19 14 12 10 12 10 13 14 12 14 16 16 20 24 29 27 27 27 28 29 29 28 30 29 28 29 29 27 28 30 30 28 27 32 34 35
9 7 4 4 7 9 16 14 10 11 15 17 18 24 25 27 25 23 20 16 14 11 11 12 11 13 14 15 18 21 22 24 25 26 26 26 27 28 28 30 30 30 29 29 28 29 28 27 27 29 30 35 33 33
8 8 4 4 7 16 16 16 15 16 20 20 18 19 22 25 22 20 20 16 15 13 12 13 13 15 19 23 24 23 24 24 24 24 25 26 27 28 28 27 27 27 28 29 28 28 28 28 28 29 29 27 26 31
4 4 6 6 7 16 22 20 19 19 24 21 21 21 20 20 21 22 20 19 15 16 21 23 27 28 27 26 26 27 26 24 24 23 23 25 25 26 27 28 28 29 29 28 28 27 27 27 28 29 31 31 30 32
9 8 9 14 15 18 21 22 24 24 24 25 24 20 21 20 22 22 22 21 23 29 28 29 29 27 27 26 26 27 26 26 26 25 25 24 25 25 26 27 27 27 28 27 27 28 29 29 29 31 30 33 35 36
13 9 18 12 17 20 20 21 23 22 23 27 24 24 23 23 24 24 22 26 28 30 31 30 30 30 30 28 28 27 27 26 24 24 24 24 26 26 27 27 27 28 27 27 29 30 31 33 33 35 34 32 32 33
12 13 17 18 20 22 24 19 22 22 23 22 22 22 25 24 24 21 27 29 30 27 29 30 29 29 30 29 27 28 28 27 26 26 25 25 25 25 25 27 26 27 30 30 32 32 32 29 31 32 32 32 33 32
16 23 23 24 22 26 24 22 22 22 24 25 23 24 26 26 23 24 29 28 27 26 28 29 31 28 27 26 26 26 27 26 24 25 26 25 25 27 28 29 29 31 32 35 35 35 34 33 30 31 31 32 31 28
22 30 27 29 27 27 27 26 26 23 25 24 24 25 26 26 27 29 29 30 28 31 30 29 28 27 27 25 24 25 26 27 25 25 27 28 28 27 29 33 33 34 36 33 33 34 34 35 33 30 26 25 25 25
33 33 31 33 30 30 29 27 28 28 26 27 29 27 27 24 28 31 31 29 28 28 29 30 30 28 26 26 26 25 26 29 28 26 26 28 30 30 33 32 32 28 36 35 34 34 33 28 25 24 23 23 22 23
33 34 32 28 30 29 27 26 26 28 30 31 31 27 25 29 31 30 27 25 26 27 26 27 29 28 27 27 25 25 25 28 28 28 31 33 33 32 31 30 29 27 29 30 28 26 25 24 23 22 22 22 23 23
34 34 34 32 31 30 30 30 32 34 32 32 30 32 32 32 33 28 26 24 24 24 24 24 25 26 26 25 24 23 23 23 27 28 27 26 26 25 26 25 25 18 23 24 23 24 25 24 24 24 25 25 24 22
34 34 34 31 33 33 36 35 34 34 34 35 30 30 30 27 27 28 26 24 24 24 24 24 23 22 23 23 22 22 22 23 23 24 24 24 24 23 22 22 23 24 25 26 22 18 21 22 23 24 24 23 23 24
34 37 33 33 34 36 36 37 37 36 34 34 33 27 27 26 25 23 23 23 24 24 24 23 23 23 24 24 24 23 23 22 23 25 27 27 25 23 23 23 23 22 23 25 23 23 21 23 24 27 27 28 29 26
35 35 32 32 33 34 35 37 36 34 33 32 31 28 29 28 25 22 23 22 22 22 23 24 24 24 25 25 25 26 26 24 23 23 23 23 23 23 24 23 22 23 24 26 27 29 28 29 31 32 31 31 31 29
34 39 38 38 35 36 37 34 34 34 33 31 31 31 30 29 29 25 23 23 24 25 24 25 25 25 24 24 23 24 23 24 24 24 23 23 22 22 21 21 23 26 26 25 26 29 31 33 32 32 32 32 32 32
34 34 33 31 32 32 32 33 30 30 30 31 30 30 30 28 29 26 23 22 24 24 25 24 23 24 23 24 24 24 24 25 24 21 21 21 21 21 22 22 24 25 26 29 29 31 32 32 32 32 32 32 32 32

GFSWCAN_con_lsi_030.txt.gz
Lid_Strength_Index
3 3 3 3 2 1 1 1 1 1 1 1 1 1 1 3 4 8 10 8 11 13 13 13 12 13 14 14 16 17 16 16 16 17 16 18 19 20 20 20 21 20 21 22 21 22 22 18 17 18 16 16 15 16
2 3 3 2 2 2 1 1 1 1 1 1 1 1 1 1 2 5 11 8 9 13 14 11 10 11 12 11 13 15 14 16 14 16 17 18 20 21 21 23 20 21 18 20 18 19 17 15 14 13 13 14 14 14
2 2 3 3 2 2 1 1 1 1 1 1 1 0 0 1 1 3 7 9 10 16 14 15 14 11 10 10 10 14 15 14 14 14 17 18 20 19 23 22 21 19 18 19 18 18 16 14 12 12 12 12 12 12
2 2 2 3 2 2 1 1 1 1 1 1 1 1 1 0 0 2 6 6 9 13 19 16 12 13 10 10 11 12 12 13 14 14 17 19 20 17 20 18 19 18 18 20 19 16 15 13 12 11 11 12 12 12
2 2 2 2 2 1 1 1 1 1 1 1 1 1 1 1 1 2 4 5 6 10 16 17 14 12 10 10 12 12 12 14 15 17 19 20 17 17 18 17 20 17 17 18 19 14 13 12 11 11 12 11 12 12
2 2 2 2 1 1 1 1 1 1 1 0 0 0 0 0 0 3 8 5 4 5 11 16 12 14 11 11 11 12 12 12 13 14 16 15 13 14 20 21 15 14 14 12 13 11 11 11 11 11 11 12 12 12
2 2 2 1 1 1 0 0 0 0 0 0 -0 -0 -0 0 1 6 8 7 2 4 9 13 15 14 11 12 14 12 11 13 13 14 17 14 14 13 19 20 14 13 13 12 11 11 12 11 11 11 11 11 12 13
2 2 2 1 1 1 1 0 -0 -0 -0 -0 -0 -0 -0 1 1 4 4 2 2 6 8 12 17 14 10 12 13 12 13 13 14 13 14 15 13 14 19 14 13 12 12 12 11 11 9 11 11 12 12 14 15 14
3 3 2 1 1 1 1 -0 -0 -0 -0 -0 -0 -0 2 5 7 6 1 1 3 6 10 11 16 18 10 10 11 10 9 13 11 15 14 13 16 17 14 13 13 12 12 11 12 12 12 12 11 13 14 17 16 14
2 1 1 1 1 1 1 -0 -0 -0 -0 -0 3 6 8 6 2 2 5 7 8 8 8 12 19 17 11 12 13 14 13 14 15 13 11 12 16 12 12 12 11 10 10 12 15 16 19 17 13 13 14 14 13 14
-0 -0 -0 -0 0 1 0 -0 -0 -0 -0 5 7 8 6 1 6 8 10 11 10 12 9 13 16 16 13 15 15 11 13 12 16 17 14 15 21 13 10 11 9 9 10 11 10 10 13 13 13 14 15 16 18 19
1 -0 1 -0 0 1 -0 -0 -0 3 4 4 5 3 4 7 11 13 12 12 14 14 15 15 14 14 16 13 13 11 13 13 18 16 15 22 17 13 14 10 8 9 13 13 14 12 16 16 18 18 19 20 22 23
-0 -0 -0 0 0 -0 -0 -0 -0 1 2 4 6 7 9 9 13 14 16 19 17 21 17 19 15 14 13 11 13 13 15 15 14 15 16 18 16 18 19 18 17 21 21 19 21 20 20 23 24 24 24 25 25 27
0 0 1 1 2 1 -0 -0 -0 1 5 9 10 13 13 13 14 17 18 21 18 18 14 16 13 14 15 15 13 18 17 18 20 22 21 19 23 25 23 23 25 23 24 22 24 23 24 25 27 27 27 27 27 28
1 1 1 1 1 1 1 1 0 3 9 12 11 14 15 19 21 25 25 23 21 20 13 16 16 11 16 13 12 15 16 20 21 21 23 26 26 27 26 27 27 27 27 28 29 27 27 27 28 31 32 31 29 29
3 3 4 2 2 2 1 2 3 4 8 11 11 17 21 20 21 22 22 16 15 13 15 14 16 15 15 14 15 16 17 19 20 28 30 27 27 28 30 30 30 31 31 31 29 29 27 28 28 32 34 32 31 29
4 9 3 3 3 4 4 9 10 11 13 12 17 24 25 23 20 21 21 15 12 11 11 11 13 15 12 14 16 17 21 25 26 26 25 27 28 28 29 31 32 32 31 32 31 29 32 32 30 31 30 33 29 31
9 7 4 3 8 10 18 15 13 14 17 18 20 23 24 25 23 23 18 15 14 13 12 12 12 14 16 16 18 22 22 23 23 24 25 28 26 28 31 33 33 30 30 31 33 32 30 31 27 28 27 28 28 29
9 7 4 4 9 18 19 19 17 18 23 22 19 19 21 24 22 19 19 16 14 13 11 12 14 19 22 25 26 25 27 27 27 25 25 27 27 29 31 30 30 30 30 29 27 27 27 26 26 27 27 27 26 27
4 5 5 6 9 19 23 23 23 20 24 22 21 20 20 20 20 19 19 19 19 21 28 27 29 29 28 28 27 27 27 26 27 26 25 25 26 27 27 28 28 29 29 31 29 28 30 29 29 27 27 26 26 26
9 8 8 14 17 20 23 24 24 25 25 22 22 20 20 20 22 21 22 21 25 29 30 31 30 29 28 28 27 28 27 27 27 27 27 25 25 25 27 28 29 31 30 28 26 27 25 25 27 28 27 32 34 34
11 9 19 14 16 19 23 21 24 24 25 27 23 22 23 23 24 25 22 27 29 30 30 30 30 30 30 29 29 29 28 28 27 24 23 24 24 24 25 26 25 27 27 26 26 26 27 28 33 36 35 35 34 34
11 13 17 19 21 23 26 20 24 23 26 25 26 25 26 26 23 21 28 28 29 27 28 30 29 29 30 29 28 28 29 28 28 28 27 26 26 25 25 25 25 25 25 26 28 28 28 29 31 33 34 33 34 33
16 23 24 25 24 27 23 23 21 21 23 24 22 25 27 26 23 26 31 30 28 27 28 29 29 29 28 28 28 29 28 29 27 27 27 26 25 26 25 25 25 26 27 28 29 33 33 33 31 32 32 33 34 33
23 30 28 30 26 26 26 27 26 25 27 26 26 27 27 27 28 31 31 32 29 28 28 28 28 28 30 29 26 27 26 27 25 25 25 25 24 24 23 24 26 28 30 29 29 31 34 35 33 33 32 33 32 31
33 32 32 33 31 30 29 29 30 29 27 29 30 27 26 27 30 34 33 31 30 29 28 29 30 29 27 27 27 25 25 25 25 23 24 25 25 25 29 29 30 26 31 33 32 33 34 33 32 31 31 29 26 27
34 34 31 27 29 29 28 27 27 29 31 32 32 27 27 31 33 32 28 26 27 26 25 25 27 28 28 26 24 23 23 24 25 26 27 27 28 29 27 28 28 27 30 33 34 32 30 29 29 28 28 27 25 24
33 34 34 32 31 31 32 32 34 35 34 33 31 32 33 33 34 29 26 24 24 24 24 24 25 26 26 24 22 22 22 22 24 24 24 24 25 24 25 25 25 19 26 27 27 26 28 28 29 29 28 26 26 27
33 33 33 31 31 33 36 35 35 34 34 35 31 31 31 28 28 28 26 24 23 23 24 24 23 22 22 22 22 22 22 23 25 27 28 27 26 25 22 23 24 24 26 27 21 19 19 21 22 23 23 24 24 26
33 34 32 33 35 36 36 37 35 35 34 33 31 26 26 25 24 22 23 23 24 25 24 24 24 24 25 25 25 25 25 25 25 27 31 29 27 24 24 24 24 24 26 28 25 25 22 24 24 27 26 27 28 28
34 34 33 32 34 35 35 35 35 33 30 29 28 28 30 28 25 23 24 24 24 24 25 26 25 25 26 27 27 28 28 26 25 26 27 25 24 24 24 23 22 26 29 30 30 32 32 32 34 35 35 34 33 32
34 38 37 35 35 34 34 33 34 32 31 30 31 30 30 29 30 27 24 25 26 27 26 26 28 28 26 27 31 32 26 27 27 27 27 26 25 25 24 23 24 28 29 28 30 32 33 34 33 33 33 33 33 33
33 32 32 32 33 32 33 33 31 31 31 31 30 30 30 29 31 27 24 24 26 27 28 28 27 27 28 31 30 32 31 33 31 24 24 23 23 23 24 25 28 31 31 31 31 32 32 33 33 33 34 34 34 34

GFSWCAN_con_lsi_033.txt.gz
Lid_Strength_Index
1 1 2 2 2 3 3 2 1 1 1 1 1 1 1 2 3 7 8 8 10 12 12 12 12 13 14 14 16 17 16 17 17 17 17 18 19 19 20 20 20 19 19 20 20 21 21 18 18 18 16 17 17 17
1 1 2 2 2 2 3 2 2 1 1 1 1 0 1 1 2 5 10 7 9 12 12 10 11 11 10 10 13 14 13 16 14 16 16 17 20 20 20 20 20 19 17 18 17 18 17 16 16 15 15 16 16 16
1 1 2 2 2 2 2 2 2 2 1 1 1 0 0 0 1 4 8 9 11 15 14 15 14 11 10 10 9 13 14 13 13 13 15 17 18 18 21 20 20 19 18 19 18 19 18 16 15 15 14 15 15 14
2 1 1 2 2 2 2 2 2 2 1 1 1 1 0 0 1 3 7 7 9 14 19 16 13 13 10 10 11 11 13 13 13 13 16 17 18 16 19 17 18 17 18 20 20 18 17 16 14 13 13 14 14 14
2 2 2 1 2 2 2 2 2 2 1 1 1 1 1 0 0 2 5 6 7 10 16 17 15 13 12 11 12 12 13 14 15 17 18 19 17 18 18 18 19 18 19 19 20 16 15 14 12 12 12 12 13 13
2 2 2 2 1 1 2 2 2 1 1 1 1 1 0 0 0 3 8 5 5 6 13 17 14 15 12 12 12 13 13 14 15 16 17 16 15 15 20 21 16 16 15 14 14 13 12 11 11 11 12 12 12 13
2 2 2 2 2 1 1 1 1 1 1 1 1 1 0 0 1 6 8 7 3 4 11 16 17 13 12 13 14 13 12 13 14 15 18 15 15 15 21 21 16 15 13 12 12 12 13 12 12 12 12 12 13 14
2 3 3 3 2 2 1 1 1 1 0 0 0 0 -0 -0 0 5 3 2 2 7 8 13 21 14 10 13 13 12 14 14 15 16 15 17 14 16 21 16 14 13 13 13 12 11 11 11 13 13 14 15 16 15
2 3 3 3 2 2 1 1 1 0 -0 -0 -0 -0 2 3 7 7 1 0 3 6 10 12 18 18 10 11 12 12 12 18 13 17 15 15 17 20 15 14 13 13 13 12 13 13 14 13 13 14 15 17 15 13
2 2 2 3 3 2 1 1 1 0 -0 -0 3 6 8 6 1 2 5 7 8 8 8 12 21 19 11 11 14 15 16 17 20 17 12 14 18 13 13 13 12 11 12 13 15 16 20 17 14 14 14 13 12 13
1 1 1 1 2 2 1 1 0 -0 -0 5 6 8 5 1 6 8 10 10 10 12 10 15 18 14 12 16 17 11 15 13 17 19 17 18 21 13 10 12 10 10 11 12 11 12 13 13 13 13 15 14 15 17
0 -0 -0 1 1 1 1 0 -0 1 4 4 5 4 5 8 11 12 12 12 12 13 13 17 17 14 13 11 13 12 14 15 17 18 16 20 17 18 17 16 14 15 15 15 15 13 15 15 17 17 19 20 22 22
-0 -0 -0 0 -0 0 -0 0 -0 1 2 5 7 8 9 11 14 16 17 16 17 16 14 15 16 14 14 12 12 13 15 16 15 17 20 19 19 24 25 23 23 22 21 22 22 22 20 23 24 25 25 26 25 26
0 1 1 1 1 2 1 -0 -0 2 5 9 11 14 13 14 14 17 18 18 17 17 16 17 14 14 14 14 13 15 15 15 17 18 21 24 27 28 27 27 29 27 26 25 27 25 24 25 27 28 28 28 26 28
2 2 2 2 2 1 1 0 1 5 8 11 11 14 15 18 21 27 28 23 20 17 13 14 16 12 16 14 13 15 18 18 19 22 26 27 28 28 29 30 30 30 29 30 31 29 27 28 29 32 32 31 29 30
3 4 5 3 3 3 2 3 5 7 10 12 17 17 19 18 22 23 26 19 17 15 16 15 17 17 17 16 16 18 18 21 22 28 27 27 29 30 31 32 32 32 34 33 32 31 29 29 30 33 32 31 30 29
4 8 4 4 4 5 5 9 10 14 17 21 24 25 26 24 24 26 25 17 13 15 17 13 15 17 13 15 17 21 20 25 25 25 25 27 28 29 30 31 33 34 34 34 35 33 34 34 33 30 30 33 34 33
10 9 4 4 8 10 15 16 14 16 22 22 22 26 28 28 26 24 22 17 13 14 15 15 10 14 17 17 20 23 25 25 23 24 24 26 27 28 29 31 31 33 34 33 34 35 34 32 30 30 32 33 28 26
8 7 5 5 10 18 18 20 21 22 25 25 21 20 22 25 22 20 20 17 15 17 15 14 20 23 26 27 27 26 27 27 27 26 25 26 27 28 28 31 32 31 30 33 33 32 31 30 28 27 26 25 26 26
5 5 6 8 11 18 21 23 23 24 28 24 23 23 21 22 21 20 22 21 22 24 29 30 31 30 29 29 28 28 27 26 28 30 26 26 27 30 30 30 29 29 28 29 29 27 28 27 27 29 29 29 29 28
9 10 9 15 22 23 25 25 26 26 27 24 23 20 20 20 23 24 25 24 27 31 32 32 32 29 28 28 27 28 28 28 29 30 30 28 26 26 29 30 28 31 31 31 30 27 25 26 26 27 26 27 28 29
13 9 19 16 20 25 24 23 25 25 26 29 25 25 26 24 25 26 23 29 30 30 30 30 30 30 30 29 29 29 29 29 30 29 26 28 29 27 26 26 25 25 26 26 24 25 25 26 27 27 26 27 28 28
13 14 19 21 23 25 27 21 26 25 26 26 27 27 27 26 24 22 28 28 28 26 27 29 29 28 29 28 28 29 30 31 32 33 33 32 30 28 27 26 25 24 24 25 25 24 24 25 25 26 28 30 32 33
17 24 25 27 26 30 25 25 22 23 25 26 26 29 30 29 24 27 31 30 28 26 28 28 28 28 27 27 28 30 30 33 31 30 28 28 28 28 27 27 26 26 26 25 25 25 26 26 27 26 32 33 35 34
24 30 28 31 27 28 28 27 26 24 28 27 27 27 28 25 30 32 32 31 30 29 28 28 28 28 29 29 28 28 29 31 31 31 27 26 26 24 23 23 25 26 26 24 25 27 31 34 33 32 31 34 33 33
33 32 32 33 31 31 30 29 30 30 27 28 30 28 26 28 32 35 33 31 30 30 28 29 30 29 27 27 28 28 26 29 30 28 27 27 26 25 26 26 25 24 28 30 33 33 33 32 34 33 30 29 28 30
34 35 32 27 29 29 29 28 28 31 33 34 34 29 28 34 35 34 30 27 28 27 25 26 28 28 28 27 24 24 23 26 28 27 27 25 25 25 24 25 25 24 24 30 34 35 34 34 33 32 31 29 29 27
33 34 35 32 32 32 33 34 35 37 35 34 31 33 34 36 36 30 27 24 24 24 23 25 25 25 25 24 23 23 23 22 24 24 24 24 24 24 26 26 25 18 22 25 24 25 27 28 28 29 29 27 25 30
32 32 32 33 32 34 37 36 36 34 34 35 31 31 32 28 28 28 25 23 23 23 25 25 25 23 23 23 23 23 23 24 26 28 29 29 28 27 24 24 24 23 24 27 22 20 20 19 21 24 27 26 26 28
33 33 31 33 34 35 34 36 34 33 33 32 28 27 27 27 25 23 24 24 25 26 25 25 25 26 27 27 28 27 27 27 26 29 34 34 32 27 26 26 25 25 27 30 28 28 24 27 27 31 32 32 34 35
32 34 32 32 33 33 33 33 33 31 28 28 28 28 29 28 26 25 25 25 26 26 27 28 28 28 30 30 31 31 32 32 31 33 34 31 30 30 29 27 25 25 32 33 33 34 33 34 36 36 35 35 34 32
32 36 33 32 33 32 32 32 32 31 30 30 30 30 30 29 30 28 26 27 30 30 30 32 31 31 32 36 38 38 30 34 34 31 31 29 28 27 27 27 26 30 32 31 33 34 34 36 35 35 34 35 35 35
33 32 32 31 32 32 32 32 30 31 31 31 30 31 31 30 31 28 25 29 32 33 34 36 35 31 34 35 35 34 33 36 35 26 26 24 24 24 25 27 30 34 34 33 33 32 33 34 34 35 35 35 35 35

GFSWCAN_con_lsi_036.txt.gz
Lid_Strength_Index
0 1 1 1 1 2 2 2 2 2 2 2 1 0 0 0 1 4 6 5 7 10 10 12 11 12 13 13 14 15 15 16 15 16 16 17 18 18 18 18 18 18 18 18 18 18 19 17 18 16 14 16 15 15
1 1 1 1 1 1 1 2 2 2 2 2 1 1 0 0 1 4 7 6 7 10 11 10 10 11 11 10 13 15 14 15 13 14 15 16 18 18 17 19 19 18 15 16 16 15 17 15 15 14 14 14 15 14
1 1 1 1 1 1 1 1 2 2 2 2 1 1 1 0 1 3 6 6 8 10 11 12 12 11 10 10 9 12 12 12 13 13 14 15 16 16 18 17 17 18 17 16 16 16 17 15 15 14 14 14 14 13
1 1 1 1 1 1 1 1 2 2 2 2 1 1 1 0 0 3 6 5 7 10 12 12 12 12 10 10 10 10 10 11 12 11 13 14 15 15 16 16 16 16 16 18 18 18 16 15 14 13 14 14 14 14
2 2 2 1 1 1 1 1 1 2 2 2 2 1 1 0 0 2 4 5 5 7 12 12 12 11 10 10 11 10 11 12 13 14 15 15 15 16 17 17 17 16 17 17 17 15 14 14 13 13 13 13 13 14
2 2 2 2 1 1 1 1 1 2 2 2 2 1 1 0 -0 4 8 5 4 5 9 13 12 12 11 11 12 12 12 13 13 13 15 15 15 15 17 18 15 15 14 13 14 12 13 12 12 12 12 13 13 13
2 2 2 2 2 1 1 1 1 1 2 2 1 1 1 0 1 6 8 5 3 4 9 13 14 11 11 11 12 12 11 11 11 13 14 14 15 14 17 18 16 15 13 12 11 12 13 12 12 12 12 11 11 12
3 2 2 2 2 2 2 2 1 1 1 1 1 0 0 -0 1 4 3 2 2 7 8 14 15 13 10 12 13 11 12 11 12 13 13 13 13 13 16 15 13 12 12 12 12 11 11 11 11 12 12 13 14 13
2 2 2 2 2 2 2 2 1 1 1 0 0 -0 1 2 6 6 1 0 2 5 9 12 16 16 10 11 11 11 11 14 12 14 13 12 15 16 14 13 13 12 12 11 12 12 13 13 12 13 13 15 13 13
2 2 2 2 2 3 2 2 2 1 -0 -0 1 5 7 6 2 1 6 7 7 7 8 13 14 14 10 11 12 12 12 14 16 14 12 13 15 12 12 11 10 10 10 12 14 15 16 14 13 13 13 11 11 10
2 2 2 2 1 2 2 2 1 0 -0 3 6 7 4 1 5 7 10 9 10 12 10 14 13 13 10 13 13 11 13 12 16 15 14 15 16 13 19 13 15 14 12 11 10 9 10 10 10 11 12 12 12 13
1 1 2 2 2 2 2 2 1 1 4 4 4 3 5 7 9 11 12 11 12 13 14 14 14 12 11 9 11 11 12 13 15 13 14 17 15 21 23 23 22 21 21 18 16 13 13 13 13 14 15 15 16 17
2 2 1 1 0 1 1 2 0 0 1 5 5 7 8 9 14 15 16 15 14 14 15 13 13 12 11 9 11 11 14 15 13 15 16 14 22 23 26 26 26 24 24 22 20 19 18 20 21 21 20 22 22 23
2 2 1 1 0 -0 -0 -0 -0 0 4 8 10 13 12 14 13 14 14 13 14 14 13 12 14 11 11 11 12 14 14 14 16 17 17 21 25 27 27 27 29 28 28 26 25 23 23 23 25 26 26 24 24 25
3 3 3 2 2 1 -0 -0 0 3 7 10 10 15 14 17 20 22 22 16 16 12 11 13 12 11 13 13 13 15 17 17 16 17 21 25 26 28 28 29 30 30 29 28 27 26 26 27 28 29 29 27 26 26
4 5 5 3 3 2 1 2 5 6 12 13 18 16 19 15 17 18 17 15 15 12 12 11 13 14 15 13 16 16 16 18 19 25 25 25 27 28 29 30 31 31 31 29 29 27 27 28 28 29 29 28 28 26
5 8 4 4 4 5 5 8 10 15 17 17 21 23 23 20 21 21 20 16 13 12 13 14 16 16 13 16 20 23 21 25 25 24 24 26 27 28 30 30 31 30 30 29 30 30 30 29 29 27 28 29 27 27
10 8 4 5 8 9 15 16 15 18 22 21 20 23 22 22 21 21 19 17 14 13 14 14 12 17 20 20 23 25 26 25 23 24 24 25 26 26 27 28 28 29 29 30 30 30 29 28 27 27 28 28 27 26
7 6 5 6 10 16 16 19 19 22 24 22 20 20 22 22 21 22 21 19 19 20 20 19 25 26 28 28 28 27 27 27 27 26 24 25 26 27 26 27 27 28 29 28 27 27 27 27 26 25 24 23 24 23
6 6 6 9 11 16 19 21 19 21 23 23 21 21 21 21 21 23 24 23 24 26 31 32 33 32 31 29 28 28 27 26 27 27 25 25 25 27 28 28 26 26 26 26 25 25 25 25 25 24 24 24 23 24
10 10 11 17 21 22 23 23 24 23 22 24 23 20 21 22 25 26 27 25 29 31 32 31 31 29 28 28 26 27 27 27 28 27 27 27 24 25 26 26 26 26 26 26 25 25 25 25 25 24 24 25 24 24
15 10 19 17 21 24 24 22 23 23 23 25 23 24 26 26 27 28 25 30 31 31 30 31 30 30 29 29 28 28 28 28 28 27 26 26 26 26 26 26 25 26 26 25 24 25 25 25 25 24 23 24 24 24
15 15 20 22 24 26 27 22 26 26 25 25 25 26 27 27 25 24 30 30 30 27 28 29 29 28 29 27 27 27 28 28 28 28 27 27 27 26 27 27 26 26 25 26 25 24 24 24 23 23 23 24 24 24
18 25 27 29 28 31 26 26 23 26 25 27 28 31 31 29 25 30 34 32 29 27 28 28 27 26 25 25 27 27 28 27 26 26 27 26 26 27 26 26 26 27 27 25 24 24 24 23 24 24 24 25 25 25
27 32 30 34 29 30 30 30 29 28 30 30 31 30 29 28 33 35 34 32 30 29 28 28 27 27 27 27 26 26 26 27 27 27 26 26 25 24 24 25 26 26 25 24 24 24 24 24 25 25 25 26 26 25
35 32 33 34 32 33 31 32 32 32 29 32 32 29 28 30 34 37 34 31 30 29 29 29 29 29 27 27 27 26 25 25 26 26 26 26 25 26 26 26 25 24 24 26 26 26 27 27 28 28 27 25 24 24
35 35 31 27 30 30 31 30 30 33 35 35 35 31 31 36 37 34 30 27 28 27 25 26 27 27 27 26 25 24 23 24 25 25 25 24 25 25 24 26 26 24 22 23 26 28 28 28 27 27 27 25 26 25
32 33 35 32 33 33 34 35 36 37 36 35 33 35 36 38 36 30 27 25 25 24 24 24 24 24 25 25 24 25 24 24 23 23 23 23 24 24 24 24 24 19 22 23 23 21 23 23 24 24 25 25 24 23
32 32 32 34 33 34 37 36 36 34 33 35 33 33 33 29 29 28 25 24 23 25 26 27 27 26 26 27 27 26 26 27 30 33 35 33 31 29 26 26 27 26 25 27 24 21 21 21 22 23 28 28 27 28
33 32 31 33 34 35 33 35 33 32 32 32 29 28 28 28 26 24 25 26 27 28 28 30 31 30 32 32 33 33 34 33 35 35 36 35 34 30 29 28 28 27 25 31 28 28 26 27 28 31 30 30 30 30
31 32 32 32 33 33 32 32 32 28 26 27 27 29 30 29 27 26 26 29 30 32 32 33 35 39 39 36 39 39 36 35 36 35 37 35 32 32 31 29 27 26 30 32 32 33 31 31 33 34 33 34 34 32
32 36 33 33 33 31 31 31 31 30 30 30 30 30 30 30 33 31 29 34 37 38 36 40 41 33 35 39 40 39 34 34 36 32 34 30 30 29 28 27 27 31 33 32 32 32 32 34 34 33 33 34 34 34
32 31 32 31 32 32 32 32 31 32 31 32 33 33 34 34 35 32 29 35 35 37 37 38 37 36 36 36 36 35 33 36 37 27 27 25 25 24 25 26 29 35 34 32 32 32 34 34 34 35 35 35 35 35